{"data":{"norad_id":63220,"epoch":"2026-09-22T16:02:09.541536Z","epoch_age_seconds":123947,"freshness":"FRESH","line1":"1 63220U 25052L   26265.66816599  .00004160  00000+0  16755-3 0  9995","line2":"2 63220  97.3820 157.8775 0005296 124.5628 235.6111 15.25399365 84755","mean_motion":15.25399365,"eccentricity":0.0005296,"inclination_deg":97.382,"raan_deg":157.8775,"arg_perigee_deg":124.5628,"mean_anomaly_deg":235.6111,"bstar":0.00016755,"rev_number":8475,"period_min":94.401507765148,"perigee_km":485.94933278549,"apogee_km":493.2236254946,"semimajor_km":6867.72347914,"source":"CELESTRAK","updated_at":"2026-09-23T09:00:21.900449Z"}}